User: anonymous   Login
Location: Petrozavodsk
(61.7955°N, 34.3748°E)
Time: 18:39:18
(UTC+03:00)
Language:

Hubble Space Telescope - Orbit

View from above orbital plane
View from above orbital plane
View from above satellite
View from above satellite

Ground track
Ground track

The orbit data is extracted from the following two-line orbital elements,

1 20580U 90037B   24105.90955786  .00008176  00000-0  39631-3 0  9992
2 20580  28.4691  48.7882 0002667  65.3661 294.7209 15.16710571667413
Epoch (UTC): 14 April 2024 21:49:45
Eccentricity: 0.0002667
inclination: 28.4691°
perigee height: 514 km
apogee height: 517 km
right ascension of ascending node: 48.7882°
argument of perigee: 65.3661°
revolutions per day: 15.16710571
mean anomaly at epoch: 294.7209°
orbit number at epoch: 66741

The dashed part of the orbit path shows where the satellite is in the earth's shadow,  

DLR